Weather History for Atlanta Dekalb, GA

Change the Weather History Date:

Sunday, April 13, 2014

  Actual Average Record
Temperature  
Mean Temperature 67 °F 61 °F  
Max Temperature 79 °F 73 °F 84 °F (2006)
Min Temperature 54 °F 49 °F 37 °F (2004)
Degree Days  
Heating Degree Days 0 5  
Month to date heating degree days 67 85  
Since 1 July heating degree days 3172 2854  
Cooling Degree Days 2 1  
Month to date cooling degree days 11 13  
Year to date cooling degree days 11 20  
Growing Degree Days 18 (Base 50)    
Moisture  
Dew Point 52 °F    
Average Humidity 60    
Maximum Humidity 80    
Minimum Humidity 39    
Precipitation  
Precipitation 0.00 in 0.11 in 1.04 in (2009)
Month to date precipitation 3.38 1.58  
Year to date precipitation 12.66 16.37  
Sea Level Pressure  
Sea Level Pressure 30.07 in    
Wind  
Wind Speed 6 mph (SSE)    
Max Wind Speed 16 mph    
Max Gust Speed 22 mph    
Visibility 10 miles    
Events      
T = Trace of Precipitation, MM = Missing Value Source: NWS Daily Summary

Daily Weather History Graph

Daily Weather History Graph

Search for Another Location

Airport:

Trip Planner

Search our weather history database for the weather conditions in past years. The results will help you decide how hot, cold, wet, or windy it might be!

Date:

Astronomy

Apr. 13, 2014 Rise Set
Actual Time 7:08 AM EDT 8:06 PM EDT
Civil Twilight 6:43 AM EDT 8:32 PM EDT
Nautical Twilight 6:13 AM EDT 9:02 PM EDT
Astronomical Twilight 5:41 AM EDT 9:34 PM EDT
Moon 6:47 PM EDT (4/13) 6:02 AM EDT (4/13)
Length of Visible Light 13h 49m
Length of Day
12h 58m
Waxing Gibbous, 97% of the Moon is Illuminated
Apr 13
Waxing Gibbous
Apr 15
Full
Apr 22
Last Quarter
Apr 29
New
May 6
First Quarter

Hourly Weather History & Observations

Time (EDT) Temp. Dew Point Humidity Pressure Visibility Wind Dir Wind Speed Gust Speed Precip Events Conditions
12:53 AM 63.0 °F 50.0 °F 63% 30.11 in 10.0 mi Calm Calm - N/A   Clear
1:53 AM 59.0 °F 51.1 °F 75% 30.10 in 10.0 mi Calm Calm - N/A   Clear
2:53 AM 61.0 °F 51.1 °F 70% 30.09 in 10.0 mi Calm Calm - N/A   Clear
3:53 AM 57.0 °F 50.0 °F 77% 30.09 in 10.0 mi Calm Calm - N/A   Clear
4:53 AM 60.1 °F 51.1 °F 72% 30.08 in 10.0 mi Calm Calm - N/A   Overcast
5:53 AM 57.0 °F 51.1 °F 81% 30.09 in 10.0 mi Calm Calm - N/A   Clear
6:53 AM 57.0 °F 51.1 °F 81% 30.11 in 9.0 mi Calm Calm - N/A   Clear
7:53 AM 57.0 °F 52.0 °F 83% 30.14 in 8.0 mi Calm Calm - N/A   Clear
8:53 AM 60.1 °F 53.1 °F 78% 30.16 in 8.0 mi Calm Calm - N/A   Overcast
9:53 AM 64.9 °F 55.0 °F 70% 30.15 in 10.0 mi SSE 4.6 mph - N/A   Mostly Cloudy
10:53 AM 70.0 °F 55.9 °F 61% 30.14 in 10.0 mi South 9.2 mph - N/A   Overcast
11:53 AM 73.9 °F 55.9 °F 53% 30.14 in 10.0 mi SSW 8.1 mph - N/A   Mostly Cloudy
12:53 PM 75.0 °F 55.0 °F 50% 30.11 in 10.0 mi South 11.5 mph 17.3 mph N/A   Mostly Cloudy
1:53 PM 78.1 °F 54.0 °F 43% 30.08 in 10.0 mi SSE 10.4 mph 18.4 mph N/A   Partly Cloudy
2:53 PM 77.0 °F 53.1 °F 43% 30.06 in 10.0 mi SSE 11.5 mph 19.6 mph N/A   Mostly Cloudy
3:53 PM 77.0 °F 53.1 °F 43% 30.05 in 10.0 mi South 11.5 mph - N/A   Mostly Cloudy
4:53 PM 77.0 °F 52.0 °F 42% 30.03 in 10.0 mi South 9.2 mph - N/A   Mostly Cloudy
5:53 PM 78.1 °F 52.0 °F 40% 30.01 in 10.0 mi SSE 10.4 mph 18.4 mph N/A   Mostly Cloudy
6:53 PM 75.9 °F 50.0 °F 40% 30.01 in 10.0 mi SE 9.2 mph - N/A   Partly Cloudy
7:53 PM 73.4 °F 50.0 °F 44% 30.02 in 10.0 mi SSE 6.9 mph - N/A   Clear
8:53 PM 70.0 °F 51.1 °F 51% 30.01 in 10.0 mi SE 4.6 mph - N/A   Clear
9:53 PM 69.1 °F 52.0 °F 54% 30.01 in 10.0 mi SSE 4.6 mph - N/A   Clear
10:53 PM 69.1 °F 52.0 °F 54% 30.00 in 10.0 mi SE 4.6 mph - N/A   Clear
11:53 PM 69.1 °F 53.1 °F 57% 29.97 in 10.0 mi SSE 8.1 mph - N/A   Clear